Regional Weather Roundup
Issued by NWS

Current Version | Previous Version | Text Only | Print | Product List | Glossary On
Versions: 1 2 3 4 5 6 7 8 9 10 11 12 13 14 15 16 17 18 19 20 21 22 23 24 25 26 27 28 29 30 31 32 33 34 35 36 37 38 39 40 41 42 43 44 45 46 47 48 49 50
000
ASUS43 KBIS 231720
RWRND

NORTH DAKOTA REGIONAL WEATHER ROUNDUP
NATIONAL WEATHER SERVICE BISMARCK ND
1100 AM CST SUN NOV 23 2014

NOTE: "FAIR" INDICATES FEW OR NO CLOUDS BELOW 12,000 FEET WITH NO
SIGNIFICANT WEATHER AND/OR OBSTRUCTIONS TO VISIBILITY.


NDZ001>003-009>011-017-231800-
NORTHWEST NORTH DAKOTA

CITY           SKY/WX    TMP DP  RH WIND       PRES   REMARKS
WILLISTON      FLURRIES  18  10  71 NW24G32   29.70R WCI   0
MINOT          LGT SNOW  20  14  77 W26G37    29.50R WCI   2
MINOT AFB      LGT SNOW  21  18  86 NW32G41   29.50R FOG     WCI   2
$$

NDZ018>021-031>035-040>046-231800-
SOUTHWEST NORTH DAKOTA

CITY           SKY/WX    TMP DP  RH WIND       PRES   REMARKS
BISMARCK       CLOUDY    29  19  66 W23G32    29.55R WCI  15
DICKINSON      FLURRIES  25  18  74 NW29G41   29.59R WCI   8
GARRISON         N/A     23  15  71 NW29G45   29.51R WCI   6
HETTINGER ARPT PTSUNNY   27  20  75 NW31G43   29.62R WCI  10
$$

NDZ004>008-012>016-024-026-027-054-231800-
NORTHEAST NORTH DAKOTA

CITY           SKY/WX    TMP DP  RH WIND       PRES   REMARKS
GRAND FORKS    CLOUDY    45  34  65 NW13      29.39S
GRND FRKS AFB  MOSUNNY   45  35  67 NW16G24   29.40S
DEVILS LAKE    CLOUDY    30  18  59 W17       29.42R WCI  18
$$

NDZ022-023-025-028>030-036>039-047>053-231800-
SOUTHEAST NORTH DAKOTA

CITY           SKY/WX    TMP DP  RH WIND       PRES   REMARKS
FARGO          CLOUDY    44  36  73 W9        29.44R
JAMESTOWN      CLOUDY    34  24  67 NW17      29.46R
$$




USA.gov is the U.S. government's official web portal to all federal, state and local government web resources and services.